LUCH-5B

Last updated on Fri Dec 19 2025 00:02:50 GMT+0000 (Coordinated Universal Time)

1 38977U 12061A 25352.40807916 -.00000122 00000+0 00000+0 0 9990 2 38977 10.0932 51.6520 0006680 194.7877 331.4094 1.00272499 47798
UTC large
Height (km)
Speed (km/s)
/
Latitude / Longitude
Inclination (degrees)
Orbital Period (minutes)
Azimuth
Elevation
Range (km)
Doppler Factor

Next 0 passes for location: London (51.5072 / 0.1276)

Sorry there are no passes over London.